IOR-W (EGNOS/PRN 126)

Last updated on Aug. 14, 2020, 5:31 a.m. UTC

1 28899U 05044A   20226.13285164  .00000013  00000-0  00000+0 0  9994
2 28899   3.0551  30.4155 0002839 123.8513 279.4817  1.00271737 54101
UTC
Height (km)
Latitude
Longitude
Inclination
Orbital Period
UTC large
Height (km)
Speed (km/s)
/
Latitude / Longitude
Inclination (degrees)
Orbital Period (minutes)
Azimuth
Elevation
Range (km)
Doppler Factor
iOS Compass Heading
iOS Angle

Next 30 passes for location: Hong Kong

Rise time Rise Azimuth (degrees) Set time Set Azimuth (degrees) Duration Max altitude (degrees)

No matching passes for this satellites